Wind_Speed
43 43 42 41 40 39 39 38 37 36 34 34 33 32 30 28 27 25 23 23 22 20 19 19 18 18 18 19 19 20 21 21 23 24 25 27 30 31
48 47 46 45 44 43 42 41 40 39 38 37 36 34 33 31 30 28 26 25 24 23 22 21 20 19 19 19 19 19 20 21 21 23 24 24 27 29
52 51 50 49 48 46 45 45 44 42 41 40 39 37 36 34 33 32 30 28 26 25 25 23 22 21 21 20 20 20 20 20 21 22 22 23 24 26
55 56 55 54 53 51 49 48 47 46 45 43 41 40 39 37 36 35 34 31 29 28 27 25 24 24 23 22 21 20 20 21 20 21 21 22 22 24
57 58 58 58 57 56 54 52 50 49 48 47 45 43 42 41 39 38 37 35 33 31 29 28 26 25 24 23 22 21 21 22 22 22 22 22 22 23
58 59 60 60 59 59 58 56 54 53 51 49 48 47 45 43 42 40 39 38 37 36 33 31 29 28 26 25 25 24 23 23 23 23 23 23 23 23
58 59 60 61 61 61 60 59 58 57 55 52 50 50 48 46 44 44 41 40 39 38 37 35 33 31 29 28 27 26 25 25 24 24 24 24 25 25
55 57 59 60 61 61 61 61 60 59 58 56 54 53 51 49 48 46 45 43 41 40 39 38 36 34 33 31 30 29 28 27 26 25 25 26 26 26
53 55 58 58 59 60 60 61 61 60 59 58 56 55 54 52 50 49 47 46 44 42 41 40 39 37 35 33 32 31 30 29 28 27 27 27 27 27
48 51 54 56 57 57 58 60 60 60 60 59 57 56 55 55 53 51 49 48 46 45 43 41 40 39 37 35 34 33 32 31 30 29 29 28 28 28
42 44 47 50 53 54 56 56 58 59 59 58 57 57 56 55 54 52 51 49 47 46 45 43 41 40 38 37 35 34 34 33 31 30 29 29 28 29
37 40 41 44 47 49 50 52 54 55 56 56 56 56 56 55 53 52 51 49 48 46 45 43 42 41 39 38 37 36 35 33 32 31 30 30 29 29
31 34 36 38 41 43 46 47 49 51 53 53 54 55 55 54 54 53 52 50 49 47 45 44 42 41 39 38 37 36 35 34 33 31 30 30 29 29
27 29 31 33 35 37 39 42 44 46 48 49 50 51 52 52 52 52 51 50 49 47 45 44 43 41 39 39 38 36 35 34 32 32 31 30 30 29
22 25 26 27 29 31 33 36 38 41 43 45 46 46 47 47 48 49 49 49 49 47 45 44 43 41 40 39 38 37 35 33 32 31 31 30 29 28
18 21 23 24 26 28 30 32 34 36 38 41 42 44 45 45 45 46 46 46 47 47 46 44 42 41 40 39 38 36 35 33 32 31 31 30 29 28
15 18 20 21 23 25 27 28 30 32 35 38 41 42 43 44 43 42 43 44 44 45 45 44 42 41 40 39 38 36 35 33 32 32 31 29 28 27
13 16 17 19 21 23 24 26 28 30 32 34 37 40 41 42 42 42 41 42 42 42 43 43 42 41 40 38 37 36 35 33 33 31 30 28 27 27
10 12 15 17 19 21 23 24 25 27 29 31 33 36 39 41 41 41 40 39 39 40 40 41 40 40 39 38 37 36 35 33 32 31 29 28 27 27
7 9 11 13 16 18 20 22 23 26 27 29 32 34 37 38 39 39 38 37 37 38 38 39 39 39 38 37 35 34 33 32 31 30 29 28 27 27
4 6 8 10 13 14 16 18 21 23 25 28 30 33 36 37 37 37 36 36 36 37 37 37 37 38 37 37 35 33 32 31 30 29 28 27 27 26
1 3 4 7 9 11 12 14 15 18 21 23 27 30 33 35 35 35 35 35 34 35 35 36 36 35 35 34 33 32 31 30 30 29 29 28 27 27
3 1 2 4 7 9 10 12 14 15 17 20 24 27 29 31 32 33 33 33 32 32 32 33 34 34 33 32 32 31 30 29 29 28 28 27 28 28
Wind_Direction
243 239 236 234 234 235 234 233 233 233 233 233 233 233 233 232 233 234 234 234 235 236 238 240 241 242 242 242 244 245 245 247 246 247 248 247 244 243
244 241 238 236 235 234 234 233 233 233 234 234 234 234 233 233 233 234 236 235 235 236 237 239 241 242 242 245 246 248 249 249 250 251 251 251 247 245
243 242 240 238 236 235 234 235 234 234 234 235 236 236 235 234 235 235 235 237 238 238 238 240 242 244 246 247 249 251 252 252 253 254 254 255 253 249
243 241 240 240 238 236 235 235 235 235 235 236 237 237 237 235 235 236 236 237 239 240 239 240 242 243 246 248 250 252 254 255 256 256 256 257 257 254
244 242 240 240 239 237 236 236 235 235 236 236 236 237 238 237 236 236 237 238 239 240 240 242 243 244 246 248 250 253 255 257 258 258 257 259 260 259
244 242 241 240 240 239 237 236 236 236 236 236 237 237 237 237 237 237 237 238 238 239 240 241 243 244 245 248 251 252 256 258 258 259 259 260 261 262
243 242 241 240 240 240 239 238 237 237 236 237 237 237 237 237 237 238 238 238 238 239 239 240 242 244 245 248 251 252 255 257 258 259 261 261 262 263
243 242 241 241 240 240 239 238 237 237 237 237 237 238 238 238 238 238 239 239 238 238 239 239 241 243 245 247 249 252 254 257 258 259 261 262 264 264
243 242 241 240 240 239 238 238 238 237 237 237 238 239 239 239 239 239 240 240 239 238 239 240 241 243 244 247 249 251 253 256 258 259 261 263 263 265
242 241 241 240 239 238 237 237 237 237 237 237 239 239 239 239 239 239 240 240 240 240 240 241 241 242 244 246 248 251 253 255 257 259 261 263 263 264
239 239 239 239 239 237 236 236 236 236 236 236 236 238 239 238 239 239 240 241 241 241 241 241 241 241 243 245 248 251 253 255 257 258 260 262 265 267
236 236 236 236 237 237 236 235 235 235 235 235 235 236 236 237 238 239 239 240 240 240 239 240 240 240 242 244 247 250 252 253 256 258 261 263 267 268
235 235 235 235 235 235 235 234 234 233 233 234 234 234 235 236 238 239 239 240 240 240 240 240 240 240 241 243 246 249 251 252 254 258 261 263 265 267
233 233 234 234 234 233 232 231 231 231 231 232 233 234 234 235 236 236 237 238 238 238 239 239 239 240 241 242 245 248 250 251 254 256 260 262 264 266
232 231 231 229 229 229 230 228 229 229 229 230 230 231 231 232 233 234 234 235 235 236 237 237 237 238 239 241 243 246 248 249 253 256 259 261 263 264
230 227 227 227 227 227 228 227 227 228 228 228 228 228 228 228 230 232 232 232 232 233 234 234 235 236 238 238 240 242 244 247 251 254 257 259 260 262
227 223 224 225 225 225 225 226 226 227 227 227 226 225 225 225 226 227 229 230 230 230 230 230 232 234 235 236 237 239 242 244 248 252 255 257 258 260
226 223 223 226 227 226 226 227 228 228 225 224 223 223 222 221 221 222 224 227 227 228 228 227 228 231 232 233 234 237 239 242 246 249 253 256 257 258
227 228 227 228 228 229 228 227 227 226 223 221 219 218 218 216 216 218 221 223 224 225 225 224 225 227 229 230 232 235 237 240 244 247 250 253 255 255
234 232 229 227 227 228 228 227 226 223 221 219 218 216 213 213 213 216 218 220 222 222 222 222 223 224 225 227 229 231 234 237 241 245 248 250 251 253
253 241 233 226 223 223 223 223 222 220 218 217 215 212 210 210 212 214 215 216 220 221 220 219 220 223 225 226 227 229 232 235 238 241 245 247 249 251
289 239 226 215 210 211 212 211 212 212 210 209 207 206 206 207 209 210 211 213 215 218 219 219 219 222 224 224 225 227 229 232 236 239 243 246 249 251
39 135 191 196 201 206 205 206 204 203 202 199 198 200 201 204 206 206 207 208 211 214 215 215 217 219 220 220 221 223 226 231 235 240 243 247 251 252
Height
5748 5752 5756 5760 5765 5770 5776 5781 5786 5791 5795 5799 5803 5807 5811 5815 5819 5822 5825 5828 5831 5834 5837 5839 5842 5844 5847 5849 5851 5854 5856 5859 5861 5863 5865 5867 5870 5873
5735 5740 5745 5750 5755 5760 5766 5771 5776 5781 5786 5791 5795 5800 5804 5808 5812 5816 5819 5822 5825 5829 5832 5835 5837 5840 5842 5844 5847 5849 5851 5854 5856 5858 5860 5862 5864 5866
5722 5727 5732 5738 5743 5749 5755 5761 5766 5771 5776 5782 5786 5792 5796 5801 5805 5809 5813 5816 5820 5823 5826 5829 5832 5835 5837 5839 5842 5844 5846 5848 5851 5852 5854 5856 5858 5860
5707 5712 5719 5724 5730 5736 5743 5749 5755 5761 5766 5772 5777 5782 5787 5792 5797 5801 5806 5810 5813 5817 5820 5823 5826 5829 5832 5834 5837 5839 5841 5843 5845 5847 5849 5851 5852 5854
5691 5697 5703 5709 5715 5722 5729 5736 5742 5749 5755 5761 5767 5772 5777 5783 5788 5793 5798 5802 5806 5810 5814 5817 5820 5823 5826 5829 5831 5834 5836 5838 5840 5841 5843 5845 5847 5848
5673 5680 5687 5694 5700 5707 5714 5721 5729 5735 5742 5749 5756 5761 5767 5773 5778 5784 5789 5794 5798 5803 5807 5811 5814 5817 5820 5823 5826 5828 5830 5832 5834 5836 5837 5839 5841 5842
5656 5662 5669 5677 5684 5691 5698 5706 5714 5721 5728 5736 5743 5750 5756 5762 5768 5774 5779 5784 5789 5794 5799 5803 5807 5811 5814 5817 5820 5822 5824 5826 5828 5830 5832 5833 5835 5836
5639 5645 5652 5659 5667 5675 5683 5691 5699 5707 5715 5722 5730 5737 5744 5751 5757 5762 5769 5775 5780 5785 5790 5795 5799 5803 5807 5810 5813 5815 5818 5820 5822 5824 5825 5827 5828 5829
5623 5629 5635 5643 5651 5659 5667 5675 5684 5692 5700 5708 5716 5724 5731 5739 5745 5751 5758 5763 5770 5775 5780 5786 5791 5795 5799 5802 5805 5808 5811 5813 5815 5817 5819 5820 5821 5823
5608 5614 5621 5628 5635 5643 5652 5660 5669 5678 5686 5695 5704 5711 5718 5725 5732 5740 5746 5752 5759 5765 5771 5776 5782 5786 5790 5794 5797 5801 5804 5806 5808 5810 5812 5813 5814 5815
5596 5601 5608 5614 5622 5630 5638 5647 5655 5662 5670 5680 5689 5696 5704 5712 5719 5727 5734 5741 5748 5754 5760 5766 5772 5777 5782 5786 5789 5792 5796 5798 5801 5803 5804 5806 5807 5808
5586 5591 5597 5603 5608 5616 5624 5632 5640 5648 5657 5666 5675 5683 5691 5699 5707 5715 5723 5730 5736 5743 5750 5756 5761 5767 5772 5777 5781 5784 5787 5790 5793 5795 5797 5798 5799 5800
5576 5582 5587 5592 5598 5605 5612 5620 5627 5635 5643 5652 5661 5670 5678 5686 5695 5703 5711 5718 5725 5733 5739 5745 5751 5757 5763 5768 5772 5775 5779 5782 5785 5787 5789 5790 5792 5793
5570 5574 5579 5584 5590 5595 5602 5609 5616 5624 5632 5640 5649 5657 5666 5674 5682 5690 5698 5706 5714 5721 5728 5734 5740 5747 5753 5758 5763 5766 5770 5774 5777 5779 5781 5783 5784 5785
5564 5568 5573 5578 5583 5588 5594 5600 5606 5614 5622 5630 5638 5646 5654 5662 5670 5678 5686 5694 5702 5709 5717 5723 5730 5737 5743 5749 5753 5758 5762 5765 5768 5771 5773 5775 5776 5777
5561 5564 5568 5572 5577 5582 5587 5592 5598 5605 5612 5620 5627 5635 5643 5651 5659 5667 5675 5683 5691 5699 5706 5713 5720 5727 5733 5739 5744 5749 5753 5757 5760 5763 5765 5767 5768 5769
5558 5561 5564 5568 5572 5576 5581 5585 5591 5597 5603 5610 5617 5625 5633 5641 5649 5657 5665 5672 5680 5688 5696 5703 5710 5716 5723 5729 5735 5740 5744 5748 5752 5755 5757 5759 5760 5761
5555 5558 5561 5564 5567 5571 5575 5579 5584 5589 5595 5601 5608 5616 5624 5631 5640 5648 5655 5663 5671 5678 5686 5693 5700 5707 5714 5720 5726 5731 5735 5740 5743 5746 5749 5751 5752 5753
5553 5555 5557 5559 5562 5565 5569 5573 5578 5582 5587 5593 5600 5607 5615 5623 5631 5639 5647 5654 5662 5669 5677 5684 5691 5698 5705 5711 5717 5722 5727 5731 5735 5738 5740 5743 5744 5746
5551 5552 5554 5556 5558 5561 5564 5568 5571 5575 5580 5586 5592 5600 5607 5615 5623 5631 5639 5647 5654 5661 5669 5676 5683 5690 5697 5703 5708 5713 5718 5722 5726 5729 5732 5734 5736 5738
5550 5551 5552 5553 5555 5558 5560 5563 5566 5570 5575 5580 5586 5593 5601 5609 5616 5624 5632 5640 5647 5654 5662 5669 5675 5682 5688 5694 5700 5705 5710 5714 5718 5721 5724 5727 5729 5731
5550 5550 5551 5552 5554 5556 5558 5560 5563 5566 5570 5575 5581 5588 5596 5603 5611 5618 5626 5633 5640 5648 5655 5661 5668 5674 5681 5687 5692 5697 5702 5706 5710 5713 5716 5719 5721 5723
5551 5551 5551 5552 5553 5555 5557 5559 5561 5564 5568 5573 5578 5585 5592 5599 5606 5613 5621 5628 5635 5642 5649 5655 5661 5668 5674 5680 5685 5690 5695 5699 5702 5706 5709 5711 5713 5715